Hourly Data Report for October 30, 2004

SHERBROOKE A
QUEBEC

45°26'00.000" N
71°41'00.000" W
241.40 m
7028124
71610
YSC

Download Data

Hourly Data (October 2004)
Hourly Data Report for October 30, 2004
TIME
LST
Temp Definition
°C
Dew Point Definition
°C
Rel Hum Definition
%
Precip. Amount Definition
mm

Wind Dir Definition
10's deg

Wind Spd Definition
km/h
Visibility Definition
km
Stn Press Definition
kPa
Hmdx Definition


Wind Chill Definition


Weather Definition


00:00 -2.4 -5.4 80   9 7 15.0 98.56   -5  
01:00 -2.5 -5.3 81   9 6 15.0 98.52   -5  
02:00 -3.4 -5.5 85   9 7 15.0 98.47   -6  
03:00 -3.1 -5.0 87   7 7 15.0 98.45   -6  
04:00 -3.2 -5.1 87   8 7 15.0 98.40   -6  
05:00 -2.9 -5.1 85   8 9 15.0 98.38   -6  
06:00 -3.0 -5.2 85   8 9 15.0 98.34   -7  
07:00 -2.0 -4.3 84   8 6 24.1 98.35   -4 Mainly Clear
08:00 0.4 -3.0 78   7 6 24.1 98.30     Mainly Clear
09:00 4.2 -1.3 67   8 6 24.1 98.27     Mainly Clear
10:00 9.7 1.6 57   8 6 24.1 98.16     Mostly Cloudy
11:00 11.6 3.1 56   16 15 24.1 98.12     Mostly Cloudy
12:00 11.4 3.0 56   15 19 24.1 98.05     Cloudy
13:00 11.4 3.9 60   17 17 24.1 97.95     Cloudy
14:00 11.6 5.1 64   16 19 24.1 97.82     Cloudy
15:00 11.5 5.8 68   15 15 24.1 97.71     Cloudy
16:00 11.4 6.2 70   15 13 24.1 97.63     Cloudy
17:00 10.4 7.5 82   15 13 15.0 97.55     Rain
18:00 10.0 7.8 86   13 11 15.0 97.47      
19:00 10.7 8.0 83   17 13 15.0 97.38     Rain
20:00 10.9 8.4 85   13 7 15.0 97.32     Rain
21:00 11.1 10.0 93   16 9 15.0 97.25     Rain
22:00 12.1 10.7 91   18 11 15.0 97.20      
23:00 11.3 10.5 95     0 15.0 97.25      

Notes on Data Quality.

Legend

  • E = Estimated
  • M = Missing
  • NA = Not Available*
  • [empty] = Indicates an unobserved value
Date modified: